Погода Октябрьское

Погода Октябрьское : погода сейчас, прогноз погоды и архив. Всё, что Вы хотите узнать о погоде Октябрьское!

Поиск расширенной информации на нашем сайте:

Полезная информация: http://www.kd72.ru/ заборы из деревянного штакетника в тюмени.

Другие новости

Новости СМИ2

Главная страница сайта

Новости сайта

02.10.2013

Напоминаем, что на нашем новом сайте вы можете получить высокодетализированные прогнозы погоды по пунктам России, СНГ и мира (включающие важные для авиации метеовеличины, такие как направление и скорость ветра, видимость, явления погоды, количество и форма облачности, нижняя и верхняя граница облачности), а также ознакомиться с разнообразными материалами по авиационной метеорологии и подборкой полезных ссылок на эту тему.

Сайт Метеоцентр.Азия посвящён разработке технологий оптимизации авиаметеорологического обслуживания, включая проектирование и перспективное создание нескольких автоматизированных авиаметеорологических систем:
- система выпуска высокодетальных прогностических карт явлений погоды для нижнего воздушного пространства по России и ближнему зарубежью;
- система верификации прогнозов TAF (выпускаемых синоптиками официальных АМСГ РФ и ближнего зарубежья) и AUTOTAF (выпускаемых сайтом Метеоцентр.Азия) - выявление ошибок, онлайн-сопоставление с фактической погодой METAR, автоматическое внесение коррективов в прогнозы при резком отклонении фактической погоды от прогноза, подсчёт оправдываемости прогнозов по элементам и в целом;
- система обработки, анализа и отображения авиаметеорологической информации для применения провайдерами метеорологической информации.

Рекомендуем: Продажа неодимовых магнитов оптом в москве.

Погода Октябрьское - сегодня

Время (UTC), дата Ветер
(°,м/с) 
Видим.   Явления Облачность Т
(°С)
Тd
(°С)
f(%) Тe
(°С)
Pmin
(гПа)
dP
(гПа)
Po
(мм)
O2
(г/м3)
Тmin Tmax R s Состояние
почвы
21 21.02.17 тихо ()   20000 м    10/0 верхняя 
[Ci fib]
-22.1 -23.8 86 -22  997.3  741  326           
00 22.02.17 140 (ЮВ) 20000 м    ясно 
-24 -25.8 85 -24  998.6  1.2  742  329           
03 22.02.17 020 (С) 10 км    10/0 средняя 
[As op]
-18.3 -20.2 85 -21  998  -0.3  741  322  -24    0.0  56  равномерный
сухой снег
100% 
06 22.02.17 020 (С) 2000 м  снег  10/0 средняя 
[As op]
-14.9 -16.9 85 -17  997.1  -0.9  741  317           
09 22.02.17 050 (СВ) 4000 м  слаб. снег  10/0 средняя 
[As op]
-11.2 -13.2 85 -11  996.3  -0.6  740  312           
12 22.02.17 050 (СВ) 4000 м  слаб. снег  10/10 600 м 
[Ns]
-9 -11 85 -11  996.3  0.1  740  309           
15 22.02.17 140 (ЮВ) 1000 м  снег  10/10 600 м 
[Ns]
-7.6 -9.4 87 -7  995.5  -0.7  740  308    -7.5     
18 22.02.17 тихо ()   4000 м  слаб. снег  10/10 300 м 
[Ns]
-5.9 -7.4 89 -6  995.5  740  305           
21 22.02.17 280 (З) 20000 м  {снег}  10/10 300 м 
[Ns]
-3.2 -3.9 95 -4  996.2  0.8  740  302           
00 23.02.17 290 (З) 4{11}  4000 м  слаб. снег  10/10 600 м 
[Ns]
-11.4 -13.4 85 -16  1000.6  4.1  743  314           
03 23.02.17 270 (З) 20000 м  в посл. час снег  10/10 1000 м 
[Ns]
-13.3 -16 80 -15  1003.4  2.7  745  317  -13.3    57  равномерный
сухой снег
100% 
06 23.02.17 300 (СЗ) 20000 м  {снег}  10/0 средняя 
[Ac As]
-12.8 -15.5 80 -15  1005.1  1.6  747  317  -13.8         
09 23.02.17 300 (СЗ) 20000 м    10/0 средняя 
[Ac As]
-11.7 -15.2 75 -14  1006.6  1.6  748  316           
12 23.02.17 260 (З) 20000 м    10/9 1500 м верхняя 
[Sc|Ci fib]
-11.8 -15.3 75 -12  1008.5  1.8  749  317           
15 23.02.17 350 (С) 20000 м    10/10 1000 м 
[Sc]
-12.7 -14.7 85 -13  1009.7  1.3  750  318    -11.4       
18 23.02.17 040 (СВ) 20000 м    9/9 1000 м 
[Sc]
-13.1 -15.8 80 -15  1010.5  0.6  751  319           
21 23.02.17 050 (СВ) 20000 м    10/0 средняя 
[As op]
-14 -16.7 80 -18  1010.7  0.3  751  320           
00 24.02.17 060 (СВ) 4000 м  слаб. снег  10/0 средняя 
[As op]
-14.6 -17.1 81 -17  1011.2  0.4  751  321           
03 24.02.17 030 (СВ) 4{10}  4000 м  слаб. снег  10/0 средняя 
[As op]
-14.6 -17.1 81 -19  1011.9  0.7  752  321  -14.8    57  равномерный
сухой снег
100% 
06 24.02.17 040 (СВ) 3{10}  2000 м  снег  10/10 600 м 
[Ns]
-13.1 -15.8 80 -17  1012.5  0.7  752  320           
09 24.02.17 830 () 4000 м  слаб. снег  10/0 средняя 
[As op]
-10.2 -13 80 -12  1013.6  1.1  753  316           
12 24.02.17 130 (ЮВ) 2000 м  снег  10/10 600 м 
[Ns]
-10.3 -12.3 85 -12  1014.6  1.1  754  317           
15 24.02.17 080 (В) 4000 м  слаб. снег  10/0 средняя 
[As op]
-12.1 -14.1 85 -12  1016.3  1.6  755  320    -12.2       
18 24.02.17 130 (ЮВ) 4000 м  слаб. снег  10/10 1000 м 
[Ns]
-13 -15 85 -15  1017  0.6  755  321           
21 24.02.17 360 (С) 4000 м  слаб. снег  10/10 1000 м 
[Ns]
-13.2 -15.2 85 -15  1017.8  0.8  756  321           
Время (UTC), дата Ветер
(°,м/с) 
Видим.   Явления Облачность Т
(°С)
Тd
(°С)
f(%) Тe
(°С)
Pmin
(гПа)
dP
(гПа)
Po
(мм)
O2
(г/м3)
Тmin Tmax R s Состояние
почвы

Для получения пояснительной информации подведите курсор к названию столбца.

ПОГОДА Октябрьское - архив

Всё, что Вы хотите узнать о погоде Октябрьское - удобно и подробно!

Выберите нужную дату (начиная с 1 января 2015* года) и нажмите кнопку "Найти".
Будут отображены архивные сводки погоды по пункту Октябрьское, начиная с указанной даты.


Отображать данные в формате CSV (для использования в таблицах Excel)


Внимание! Наш архив погоды предназначен исключительно для личного некоммерческого использования в познавательных целях. Если Вам необходимы официальные справки о состоянии погоды (для производственных, юридических, коммерческих и т.п. целей), обращайтесь в органы Росгидромета.

*Примечание: данная дата относится к архиву по метеостанциям СССР (Россия, СНГ, Балтия).
Архив по метеостанциям Зарубежной Европы и Азии (кроме Китая) хранится 10 дней, по другим регионам земного шара (Китай, Африка, Америка, Австралия, Океания) - 1 день.

Октябрьское - район местоположения метеостанции


Название, широта, долгота, высота метеостанции:
Октябрьское 62.4°ш. 66.1°д. 72 м над ур. моря [Российская Федерация]

Дополнительная информация

В oтличие oт бoльшинства пoгoдных сайтoв мы публикуем пoдрoбную метеoинфoрмацию в детальнoм прoфессиoнальнoм фoрмате.

Характеристики температуры и влажнoсти вoздуха измеряются на высoте 2 м в тени вдали oт зданий и деревьев.
Скoрoсть ветра измеряется на высoте 10 м (на урoвне рoста челoвека скoрoсть ветра ниже в 1.5-2 раза). Если метеoстанция нахoдится в гoрoде или в лесу, тo скoрoсть ветра занижена на 2-4 м/с пo сравнению с oткрытым местoм. Скoрoсть ветра над акватoриями крупных рек и oзёр, а также на вершинах хoлмoв на 2-5 м/с выше, чем в oбычных услoвиях.
Атмoсфернoе давление в разных тoчках местнoсти мoжет значительнo oтличаться oт давления на метеoстанции, в зависимoсти oт услoвий рельефа (при пoдъёме на 10 м давление пoнижается примернo на 1 мм рт.ст.).